World > North America > United States > New York

Hourly Sleepy Hollow, NY Regional Weather

Feedback E-mail the Weather

Latest News

Sleepy Hollow, NY Weather Maps

°F °C°F °C
Sleepy Hollow Weather Map
UTC Time: 5/28/2022, 23:02
Your Time:

Sleepy Hollow, NY Regional Weather

Expires:202205282300;;718958
ASUS41 KALY 282210
RWRALY

NEW YORK STATE HOURLY WEATHER ROUNDUP
NATIONAL WEATHER SERVICE ALBANY NY
600 PM EDT SAT MAY 28 2022

NOTE: "FAIR" INDICATES FEW OR NO CLOUDS BELOW 12,000 FEET WITH NO
SIGNIFICANT WEATHER AND/OR NO OBSTRUCTIONS TO VISIBILITY.


NYZ032-033-038>043-046>054-057>066-NYZ062>081-082-084-282300-
EAST

  
CITY           SKY/WX    TMP DP  RH WIND       PRES   REMARKS
ALBANY         NOT AVBL                                               
GLENS FALLS    MOSUNNY   72  50  45 N12G20    29.73R                  
POUGHKEEPSIE   CLOUDY    68  64  87 SW6       29.73S                  
NEWBURGH       PTSUNNY   68  66  94 W10       29.76S                  
MONTGOMERY     HVY RAIN  66  64  93 VRB3      29.76R VSB 3/4          
WHITE PLAINS   PTSUNNY   67  63  87 CALM      29.75F                  
ISLIP          PTSUNNY   69  63  81 W9        29.76R                  
NEW YORK CITY  PTSUNNY   71  59  65 CALM      29.75F                  
CENTRAL PARK   PTSUNNY   71  61  70 VRB3      29.79S                  
$$


SKY/WX - Weather  TMP - Temperature  DP - Dew Point  RH - Humidity
WIND - Wind Direction/Speed PRES - Barometric Pressure VSB - Visibility
WCI - Wind Chill Index E13G22 Wind - East Wind 13 mph/Gusts of 22 mph

Trending Headlines

Sleepy Hollow Radar Loop



Sleepy Hollow Quick Facts


National Two Day Weather Forecast


E-mail the Sleepy Hollow Weather Forecast

Voice your opinion or tell us about page issues...